Regional Weather Roundup
Issued by NWS Northern Indiana

Home | Current Version | Previous Version | Graphics & Text | Print | Product List | Glossary On
Versions: 1 2 3 4 5 6 7 8 9 10 11 12 13 14 15 16 17 18 19 20 21 22 23 24 25 26 27 28 29 30 31 32 33 34 35 36 37 38 39 40 41 42 43 44 45 46 47 48 49 50
000
ASUS43 KIWX 210210
RWRIWX

KIWX WEATHER ROUNDUP
NATIONAL WEATHER SERVICE NORTHERN INDIANA
1000 PM EDT THU JUL 20 2017

NOTE: "FAIR" INDICATES FEW OR NO CLOUDS BELOW 12,000 FEET WITH NO
SIGNIFICANT WEATHER AND/OR OBSTRUCTIONS TO VISIBILITY.

* THESE STATIONS ARE NOT UNDER NWS QUALITY CONTROL. THEY ALSO MAY NOT
  REPORT WEATHER SUCH AS PRECIPITATION OR FOG.

INZ001>027-210300-
NORTHERN INDIANA

CITY           SKY/WX    TMP DP  RH WIND       PRES   REMARKS
GARY*          PTCLDY    81  72  74 E5        29.97S
VALPARAISO     CLOUDY    79  74  84 CALM      29.98S
MICHIGAN CITY* CLOUDY    75  72  88 CALM      29.98R
LAPORTE*       CLOUDY    78  72  81 CALM      29.99R
KNOX*          CLEAR     75  73  94 CALM      29.97R
SOUTH BEND     PTCLDY    76  70  82 N5        29.98R
GOSHEN         PTCLDY    77  71  82 NW5       29.97R
MONTICELLO*    CLOUDY    80  79  95 CALM      29.96R
LOGANSPORT*    CLOUDY    79  77  94 CALM      29.98R
ROCHESTER*     PTCLDY    81  77  89 CALM      29.97R
WARSAW*        PTCLDY    77  75  94 CALM      29.97S
AUBURN*        CLEAR     79  72  78 CALM      29.98R
FORT WAYNE     MOCLDY    81  75  82 W3        29.97S
HUNTINGTON*    PTCLDY    80  76  88 CALM      29.97R
PERU/GRISSOM   MOCLDY    83  76  79 CALM      29.96S
MARION*        CLOUDY    79  77  94 CALM      29.99R

$$
INZ028>050-210300-
CENTRAL INDIANA

CITY           SKY/WX    TMP DP  RH WIND       PRES   REMARKS
LAFAYETTE      MOCLDY    83  80  91 CALM      29.95R HX  95
KOKOMO*        CLOUDY    81  78  91 CALM      29.99R
MUNCIE*        CLOUDY    82  76  81 CALM      29.98F
INDIANAPOLIS   PTCLDY    82  77  84 SW6       29.98R

$$
MIZ043>046-050>051-056>058-064>065-071>073-077>080-210300-
SOUTHWEST LOWER MICHIGAN

CITY           SKY/WX    TMP DP  RH WIND       PRES   REMARKS
BATTLE CREEK   CLEAR     76  71  85 W5        29.97S
BENTON HARBOR  CLEAR     72  67  84 CALM      29.97R
COLDWATER*     CLEAR     75  72  89 CALM      29.96S
HILLSDALE*     CLEAR     75  70  83 CALM      29.97S
HOLLAND        CLEAR     72  68  87 W3        29.98R
GRAND RAPIDS   PTCLDY    76  71  85 W9        29.96R
KALAMAZOO      CLEAR     77  67  71 W5        29.97R
STURGIS*       CLEAR     75  72  89 CALM      29.96S
THREE RIVERS*  FAIR      75  69  81 CALM      29.97S

$$
OHZ001>008-015>018-024>025-210300-
NORTHWEST OHIO

CITY           SKY/WX    TMP DP  RH WIND       PRES   REMARKS
WAUSEON*         N/A     75  72  88 SW5       29.96S
DEFIANCE       CLOUDY   N/A N/A N/A S5        29.96S
FINDLAY        CLOUDY    79  71  76 S6        29.97S
TOLEDO EXPRESS CLEAR     76  72  87 S6        29.95S
TOLEDO METCALF CLEAR     80  72  76 SW6       29.96S
LIMA           CLOUDY    79  74  84 SE3       29.99S

$$
AND FOR LAKE MICHIGAN COASTAL AND OPEN LAKE BUOY OBSERVATIONS

STATION/POSITION TEMP    WIND        PRES    VSBY  WAVE
                 AIR SEA DIR/SP/G                  HT/PER
                 (F)     (DEG/KT/KT) (MB)    (MI)  (FT/S)
CALUMET HARBOR    75      10/  4/  5 1014.6R
MICHIGAN CITY     77      50/  4/  4   N/A
BURNS HARBOR      76      70/  5/  6 1015.2R
SAINT JOSEPH      74      CALM  /  1 1015.9
SOUTH LAKE BUOY   72 72  210/  4/  4 1014.6R         1/ 4
4 MI NW BRIDGMAN  75 76   20/  2/  2 1014.5          1
MICHIGAN CITY     75 74   90/  2/  2   N/A           1

$$
&&




USA.gov is the U.S. government's official web portal to all federal, state and local government web resources and services.